Preview of NWS' New Version of Forecast
This preview is not operational and should not be used for support decisions.

Regional Weather Roundup (RWR)

Issued by National Weather Service (NWS)

                            
000
ASUS45 KBOI 251210
RWRID 

IDAHO REGIONAL WEATHER ROUNDUP
NATIONAL WEATHER SERVICE BOISE ID
600 AM MDT TUE JUN 25 2019

NOTE: "FAIR" INDICATES FEW OR NO CLOUDS BELOW 12000 FEET
WITH NO SIGNIFICANT WEATHER AND/OR OBSTRUCTIONS TO VISIBILITY

IDZ012-014-251300-
SOUTHWEST IDAHO

  
CITY           SKY/WX    TMP DP  RH WIND       PRES   REMARKS
BOISE          MOCLDY    58  40  51 SE8       29.83R                  
CALDWELL       MOCLDY    56  47  71 CALM      29.82R                  
MOUNTAIN HOME  MOCLDY    53  43  70 E3        29.83R                  
$$

IDZ016-017-251300-
SOUTHCENTRAL IDAHO

  
CITY           SKY/WX    TMP DP  RH WIND       PRES   REMARKS
BURLEY         MOCLDY    54  45  71 CALM      29.86S                  
JEROME         CLOUDY    56  42  59 E6        29.86F                  
TWIN FALLS     MOCLDY    55  42  61 CALM      29.87R                  
$$

IDZ019>023-251300-
SOUTHEAST IDAHO

  
CITY           SKY/WX    TMP DP  RH WIND       PRES   REMARKS
IDAHO FALLS    CLOUDY    51  41  68 N8        29.92S                  
POCATELLO      MOCLDY    50  42  74 E5        29.90R                  
REXBURG        MOCLDY    45  38  76 NE8       29.94S                  
$$

IDZ006-010-011-018-031-032-251300-
CENTRAL IDAHO MOUNTAINS

  
CITY           SKY/WX    TMP DP  RH WIND       PRES   REMARKS
MCCALL         CLOUDY    44  37  76 S6        29.92R                  
HAILEY         CLOUDY    50  37  62 NW10      29.96S                  
STANLEY          N/A     39  33  79 CALM      30.01S                  
SALMON         PTCLDY    41  37  86 CALM      29.95S                  
CHALLIS        LGT RAIN  51  40  65 VRB5      29.97R                  
$$

IDZ002-004-006-007-026-251300-
NORTHERN IDAHO

  
CITY           SKY/WX    TMP DP  RH WIND       PRES   REMARKS
LEWISTON       PTCLDY    51  39  63 S3        29.86R                  
LOWELL           N/A     48  46  93 N3        29.92S                  
COEUR D'ALENE  CLEAR     45  43  93 E8        29.89S                  
MULLAN PASS      N/A    N/A N/A N/A MISG      29.94F                  
$$